Overview Statistics Trail Chart Weather Telemetry Raw packets
 

This is the latest recevied weather packets stored in our database for station/object CT4TX-6. If no packets are shown the sender has not sent any weather packets the latest 10 day(s).

<< 353 354 355 356 357 358 359 >>
Time Temp. Humidity Pressure Rain* Wind** Luminosity Snow
1788124507 25.56° C 52% 1009 hPa - - - -
1788124454 25.56° C 52% 1009 hPa - - - -
1788124407 26.11° C 52% 1009 hPa - - - -
1788124349 25.56° C 52% 1009 hPa - - - -
1788124315 26.11° C 52% 1009 hPa - - - -
1788124288 25.56° C 52% 1009 hPa - - - -
1788124242 26.11° C 52% 1009 hPa - - - -
1788124193 26.11° C 52% 1009 hPa - - - -
1788124148 26.11° C 52% 1009 hPa - - - -
1788124097 26.11° C 52% 1009 hPa - - - -
1788124048 26.11° C 52% 1009 hPa - - - -
1788123989 26.11° C 52% 1009 hPa - - - -
1788123904 26.11° C 52% 1009 hPa - - - -
1788123828 26.11° C 52% 1009 hPa - - - -
1788123770 26.11° C 52% 1009 hPa - - - -
1788123734 26.11° C 51% 1009 hPa - - - -
1788123711 26.11° C 51% 1008.9 hPa - - - -
1788123687 26.11° C 51% 1009 hPa - - - -
1788122317 26.67° C 51% 1008.8 hPa - - - -
1788121416 26.67° C 50% 1008.6 hPa - - - -
1788120516 27.22° C 50% 1008.5 hPa - - - -
1788119616 26.67° C 50% 1008.3 hPa - - - -
1788118715 27.22° C 49% 1008 hPa - - - -
1788117815 27.22° C 49% 1007.9 hPa - - - -
1788116915 27.22° C 48% 1007.9 hPa - - - -

* Rain since midnight (hover to see other rain measurements)
** Current wind speed in m/s (hover to see current wind gust speed)